Home   Weather   50°25'N, 4°06'W   Past weeks
Flag for United Kingdom

Past Weather in 50°25'N, 4°06'W, United Kingdom — Yesterday and Last 2 Weeks

Now
56 °F

Light rain. Overcast.


Feels Like: 50 °F
Forecast: 57 / 50 °F
Wind: 26 mph from South

Location: Plymouth

Current Time: Oct 15, 2019 at 11:10:00 pm

Latest Report: Oct 15, 2019 at 10:00 pm


Visibility: 6 mi

Pressure: 29.61 "Hg

Humidity: 94%

Dew Point: 54 °F

Location of 50°25'N, 4°06'WLocation

Past Weather in 50°25'N, 4°06'W — Graph

°F

50°25'N, 4°06'W Temperature Yesterday

Maximum temperature yesterday: 56 °F (at 3:00 pm)
Minimum temperature yesterday: 53 °F (at 9:00 pm)
Average temperature yesterday: 55 °F

High & Low Weather Summary for the Past Weeks

 TemperatureHumidityPressure
High63 °F (Oct 1, 4:00 pm)100% (Oct 1, 12:00 am)30.22 "Hg (Oct 1, 12:00 am)
Low46 °F (Oct 3, 12:00 am)45% (Oct 2, 2:00 pm)29.44 "Hg (Oct 1, 7:00 am)
Average56 °F90%29.81 "Hg
* Reported Sep 30 9:00 pm — Oct 15 9:00 pm, 50°25'N, 4°06'W. Weather by CustomWeather, © 2019

Note: Actual official high and low records may vary slightly from our data, if they occured in-between our weather recording intervals... More about our weather records

Advertising

50°25'N, 4°06'W Weather History for the Previous 24 Hours

Scroll right to see more
 ConditionsComfort  
Time TempWeatherWind HumidityBarometerVisibility
9:00 pm
Tue, Oct 15
56 °FLight rain. Overcast.18 mph97%29.63 "Hg4 mi
8:00 pm56 °FCool.18 mph92%29.66 "Hg10 mi
7:00 pm56 °FCool.15 mph91%29.67 "Hg12 mi
6:00 pm55 °FCool.16 mph93%29.68 "Hg13 mi
5:00 pm56 °FCool.17 mph80%29.69 "Hg19 mi
4:00 pm59 °FCool.16 mph73%29.69 "Hg19 mi
3:00 pm60 °FCool.15 mph75%29.69 "Hg19 mi
2:00 pm61 °FCool.9 mph76%29.67 "Hg19 mi
1:00 pm57 °FCool.12 mph83%29.67 "Hg19 mi
12:00 pm55 °FDrizzle. Cloudy.9 mph94%29.67 "Hg19 mi
11:00 am55 °FCool.3 mph95%29.66 "Hg11 mi
10:00 am53 °FDuststorm.1 mph100%29.65 "Hg1 mi
9:00 am50 °FFog.1 mph99%29.65 "Hg2 mi
8:00 am50 °FCool.2 mph99%29.63 "Hg2 mi
7:00 am51 °FCool.3 mph99%29.61 "Hg2 mi
6:00 am51 °FLight rain. Overcast.2 mph97%29.60 "Hg2 mi
5:00 am53 °FFog.7 mph96%29.60 "Hg3 mi
4:00 am53 °FFog.7 mph97%29.60 "Hg3 mi
3:00 am53 °FFog.6 mph96%29.60 "Hg3 mi
2:00 am54 °FFog.9 mph97%29.60 "Hg4 mi
1:00 am54 °FCool.3 mph99%29.59 "Hg2 mi
12:00 am54 °FSprinkles. Overcast.6 mph99%29.59 "Hg1 mi
11:00 pm
Mon, Oct 14
54 °FLight rain. Overcast.5 mph99%29.59 "Hg3 mi
Weather by CustomWeather, © 2019

See weather overview